This is the latest recevied weather packets stored in our database for station/object s59zo-6. If no packets are shown the sender has not sent any weather packets the latest 10 day(s).
| Time | Temp. | Humidity | Pressure | Rain* | Wind** | Luminosity | Snow |
|---|---|---|---|---|---|---|---|
| 1788457805 | 24.44° C | 52% | 1018.6 hPa | 0 mm | - | - | - |
| 1788457504 | 25° C | 52% | 1018.6 hPa | 0 mm | - | - | - |
| 1788457204 | 25.56° C | 52% | 1018.5 hPa | 0 mm | - | - | - |
| 1788456904 | 25.56° C | 52% | 1018.6 hPa | 0 mm | - | - | - |
| 1788456604 | 26.11° C | 51% | 1018.4 hPa | 0 mm | - | - | - |
| 1788456304 | 26.67° C | 48% | 1018.3 hPa | 0 mm | - | - | - |
| 1788456004 | 26.67° C | 48% | 1018.4 hPa | 0 mm | - | - | - |
| 1788455705 | 27.22° C | 49% | 1018.5 hPa | 0 mm | - | - | - |
| 1788455405 | 27.78° C | 44% | 1018.2 hPa | 0 mm | - | - | - |
| 1788455104 | 28.33° C | 44% | 1018.4 hPa | 0 mm | - | - | - |
| 1788454805 | 28.89° C | 43% | 1018.3 hPa | 0 mm | - | - | - |
| 1788454505 | 29.44° C | 44% | 1018.3 hPa | 0 mm | - | - | - |
| 1788454205 | 30° C | 43% | 1018.3 hPa | 0 mm | - | - | - |
| 1788453904 | 30° C | 41% | 1018.1 hPa | 0 mm | - | - | - |
| 1788453604 | 30.56° C | 36% | 1018.2 hPa | 0 mm | - | - | - |
| 1788453304 | 30.56° C | 36% | 1018.1 hPa | 0 mm | - | - | - |
| 1788453004 | 30.56° C | 35% | 1018.1 hPa | 0 mm | - | - | - |
| 1788452704 | 30.56° C | 36% | 1018.3 hPa | 0 mm | - | - | - |
| 1788452405 | 30.56° C | 36% | 1018.2 hPa | 0 mm | - | - | - |
| 1788452104 | 30.56° C | 36% | 1018.2 hPa | 0 mm | - | - | - |
| 1788451804 | 30° C | 34% | 1018.1 hPa | 0 mm | - | - | - |
| 1788451504 | 29.44° C | 32% | 1018.1 hPa | 0 mm | - | - | - |
| 1788451205 | 29.44° C | 32% | 1018 hPa | 0 mm | - | - | - |
| 1788450904 | 28.89° C | 35% | 1018.1 hPa | 0 mm | - | - | - |
| 1788450605 | 28.89° C | 34% | 1018 hPa | 0 mm | - | - | - |
* Rain latest hour (hover to see other rain measurements)
** Current wind speed in m/s (hover to see current wind gust speed)